C/2014 E2 ( Jacques )

Japanese version
Home page
Updated on January 24, 2016

---------------------------------------------------------------------

* Profile

Discovery Date March 13, 2014
Magnitude 14.7 mag
Discoverer Cristovao Jacques (SONEAR Observatory near Oliveira, Brazil)

* Pictures

* Orbital Elements

Epoch 2014 July 2.0 TT = JDT 2456840.5
T 2014 July 2.51570 TT                                  MPCW
q   0.6639309            (2000.0)            P               Q
z  +0.0014623      Peri.  344.04133     +0.32236741     +0.88590998
                   Node    56.39124     +0.90640514     -0.39047947
e   0.9990291      Incl.  156.39209     +0.27296334     +0.25037829
From 4554 observations 2014 Mar. 13-2015 Apr. 19, mean residual 0".5.
     Nongravitational parameters A1 = +2.10, A2 = -0.2800.

* Finding Charts

* Magnitudes Graph

        m1 = 6.0 + 5 log d + 15.0 log r  [   ,-63]  (             - 2014 Apr. 30)
        m1 = 6.7 + 5 log d + 10.0 log r  [-63, 63]  (2014 Apr. 30 - 2014 Sept. 3)
        m1 = 6.0 + 5 log d + 15.0 log r  [ 63,   ]  (2014 Sept. 3 -             )

---------------------------------------------------------------------

The orbital elements are published on M.P.E.C. 2015-H37.
The charts are made with StellaNavigator Ver.8 (AstroArts).
The magnitudes graphs are made with Comet for Windows.

---------------------------------------------------------------------

Copyright(C) Seiichi Yoshida (comet@aerith.net). All rights reserved.